KF0GNS-15 Weather Reports


time (UTC)temp
C
wind
direction
speed
KPH
gust
KPH
rain 1hr
cm
rain 24hr
cm
rain mn
cm
humidity
%
barometer
mb
20260509145910 20 250 11.3 11.3 0.00 0.33 0.03 63 1011.1
20260509144322 18 257 1.6 1.6 0.00 0.33 0.03 68 1011.1
20260509142736 18 222 1.6 6.4 0.00 0.33 0.03 70 1011.0
20260509141147 17 211 3.2 8.0 0.00 0.33 0.03 74 1011.1
20260509135556 16 360 0.0 1.6 0.00 0.33 0.03 79 1011.1
20260509132418 13 248 1.6 12.9 0.00 0.33 0.03 87 1010.8
20260509130829 12 360 0.0 3.2 0.00 0.33 0.03 93 1010.8
20260509123650 11 232 1.6 3.2 0.00 0.33 0.03 97 1010.7
20260509122102 10 360 0.0 4.8 0.00 0.33 0.03 96 1010.6
20260509120513 10 246 1.6 6.4 0.00 0.33 0.03 96 1010.3
20260509111746 10 360 0.0 0.0 0.00 0.33 0.03 96 1009.9
20260509103017 10 224 1.6 6.4 0.00 0.33 0.03 96 1009.8
20260509092702 11 360 0.0 4.8 0.03 0.33 0.03 95 1009.8
20260509073623 11 163 1.6 12.9 0.00 0.30 0.00 96 1009.6
20260509063303 11 360 0.0 0.0 0.00 0.30 0.00 95 1010.1
20260509061723 11 360 0.0 0.0 0.00 0.30 0.00 96 1010.2
20260509060125 11 360 0.0 0.0 0.00 0.30 0.00 96 1010.3
20260509054535 11 360 0.0 0.0 0.00 0.30 0.00 96 1010.3
20260509052951 10 360 0.0 0.0 0.00 0.30 0.00 96 1010.3
20260509051357 10 360 0.0 0.0 0.00 0.30 0.00 94 1010.3
20260509035453 11 360 0.0 0.0 0.00 0.30 0.30 94 1010.4
20260509033903 11 360 0.0 0.0 0.00 0.30 0.30 93 1010.5
20260509032314 12 360 0.0 0.0 0.00 0.30 0.30 94 1010.4
20260509023547 12 360 0.0 0.0 0.00 0.30 0.30 92 1009.8
20260509021958 13 360 0.0 0.0 0.00 0.30 0.30 91 1009.5
20260509014822 14 360 0.0 0.0 0.00 0.30 0.30 88 1009.4
20260509013231 15 360 0.0 0.0 0.00 0.30 0.30 87 1009.3
20260509011642 16 360 0.0 0.0 0.00 0.30 0.30 86 1009.1
20260509004504 17 360 0.0 0.0 0.00 0.30 0.30 81 1009.1
20260509002915 18 360 0.0 0.0 0.00 0.30 0.30 78 1008.7
20260509001328 18 360 0.0 0.0 0.00 0.30 0.30 76 1008.7
20260508234148 18 360 0.0 0.0 0.00 0.30 0.30 77 1008.5
20260508232559 18 254 1.6 9.7 0.00 0.30 0.30 80 1008.8
20260508231012 17 360 0.0 6.4 0.00 0.30 0.30 84 1008.9
20260508225421 17 360 0.0 6.4 0.03 0.30 0.30 88 1008.8
20260508222243 16 360 0.0 8.0 0.20 0.30 0.30 95 1008.4
20260508220654 15 360 0.0 4.8 0.20 0.30 0.30 93 1008.2
20260508215105 14 106 4.8 12.9 0.25 0.28 0.30 93 1008.7
20260508213516 15 172 3.2 9.7 0.25 0.28 0.28 91 1009.4
20260508211927 15 360 0.0 0.0 0.10 0.10 0.18 90 1010.1
20260508210338 16 360 0.0 0.0 0.10 0.10 0.10 90 1010.3
20260508204749 16 360 0.0 0.0 0.03 0.03 0.08 86 1010.3
20260508203200 16 360 0.0 0.0 0.03 0.03 0.03 84 1010.6
20260508201611 17 360 0.0 3.2 0.00 0.00 0.00 83 1010.2
20260508200022 17 360 0.0 0.0 0.00 0.00 0.00 79 1010.3
20260508194433 17 360 0.0 0.0 0.00 0.00 0.00 75 1010.3
20260508191255 17 360 0.0 0.0 0.00 0.00 0.00 73 1010.0
20260508185707 17 360 0.0 0.0 0.00 0.00 0.00 72 1010.2
20260508184117 17 360 0.0 0.0 0.00 0.00 0.00 69 1010.2
20260508180939 17 182 1.6 6.4 0.00 0.00 0.00 68 1010.5
20260508175350 17 360 0.0 6.4 0.00 0.00 0.00 70 1010.4
20260508173804 17 174 3.2 8.0 0.00 0.00 0.00 71 1010.6
20260508172212 17 360 0.0 4.8 0.00 0.00 0.00 73 1010.4
20260508170624 16 360 0.0 3.2 0.00 0.00 0.00 75 1010.3
20260508165034 16 169 1.6 12.9 0.00 0.00 0.00 73 1010.1
20260508163447 16 231 12.9 12.9 0.00 0.00 0.00 70 1011.7
20260508162011 16 296 3.2 14.5 0.00 0.00 0.00 68 1011.4
20260508161856 16 296 3.2 14.5 0.00 0.00 0.00 68 1011.4
20260508160437 16 329 3.2 9.7 0.00 0.00 0.00 68 1011.1
20260508160310 16 329 3.2 9.7 0.00 0.00 0.00 68 1011.1
20260508154720 16 194 1.6 14.5 0.00 0.00 0.00 69 1010.8
20260508153129 15 273 11.3 11.3 0.00 0.00 0.00 70 1010.7
20260508151540 15 232 3.2 16.1 0.00 0.00 0.00 70 1010.8